Theta_e
315 315 316 316 316 317 317 317 317 317 317 317 316 315 315 314 315 314 315 315 315 316 315 316 317 317 328 337 343 344 340 342 339 335 348 346 347 347 346 345 346 345 339 338
316 317 317 318 318 318 318 318 318 318 318 318 317 316 316 316 314 315 316 316 316 316 316 315 316 317 329 338 342 340 342 338 338 341 347 348 348 348 348 348 345 345 343 341
314 315 316 316 316 317 316 318 318 318 319 318 318 319 317 317 317 317 316 316 316 316 316 317 317 317 320 340 342 342 344 339 344 347 348 348 349 349 348 348 349 347 347 345
315 315 316 316 316 316 317 317 318 318 320 320 319 321 316 317 317 317 317 317 317 317 316 316 317 316 318 340 341 340 341 342 342 345 345 348 349 349 346 346 348 346 345 343
317 316 315 317 317 317 316 316 316 317 318 318 320 322 319 317 317 317 317 318 318 317 316 316 316 317 317 336 341 338 349 338 335 334 344 348 347 349 347 348 346 344 344 343
316 317 318 318 319 319 318 319 318 318 318 322 320 321 319 318 318 317 317 318 318 318 317 316 316 317 323 339 339 345 350 348 345 339 344 345 346 346 347 347 346 344 344 342
319 319 318 318 318 318 319 321 323 324 322 322 318 320 319 317 317 317 317 317 318 319 317 316 316 316 321 338 335 335 348 348 349 348 346 346 346 347 346 346 345 344 343 341
320 319 317 316 315 315 315 319 322 323 324 323 319 321 318 317 318 318 317 319 318 318 318 316 316 316 319 337 336 334 341 346 348 348 346 347 347 346 346 345 344 341 340 341
317 318 315 314 314 313 314 317 319 320 319 320 317 315 315 316 317 318 317 319 318 318 318 318 317 316 317 334 335 337 343 347 347 347 345 346 346 345 346 344 339 341 339 336
315 316 315 314 313 314 314 316 318 319 316 317 316 316 315 318 318 319 318 317 317 318 318 318 317 317 316 324 339 338 342 344 347 346 344 345 345 345 344 342 338 340 337 334
314 313 314 313 314 314 316 316 318 320 322 321 317 315 315 317 318 317 316 317 317 318 319 318 317 316 316 327 342 339 342 343 345 342 337 340 346 344 342 339 339 336 334 329
314 312 315 313 312 313 313 316 318 321 319 317 316 316 315 314 316 314 313 316 316 317 319 318 316 316 317 327 340 340 344 343 343 339 344 345 344 342 339 338 334 333 329 329
310 312 315 314 314 317 319 319 319 319 318 320 320 316 316 315 316 315 315 316 316 317 318 319 318 317 318 329 340 341 343 343 340 340 344 344 341 340 337 334 333 329 328 328
311 311 315 314 314 313 314 314 315 317 321 320 320 318 317 316 316 316 316 316 316 319 323 328 330 329 331 338 338 342 344 344 346 344 344 341 341 337 334 331 327 326 325 322
312 314 313 313 314 314 315 316 316 317 319 322 319 319 318 318 316 317 317 318 319 319 334 335 336 336 338 339 339 340 341 337 342 341 341 339 335 332 331 327 324 324 321 320
311 314 313 313 314 315 318 311 311 312 313 313 313 314 312 312 311 312 316 318 319 320 330 329 329 336 337 338 337 337 332 330 336 339 334 332 331 331 327 323 324 321 320 319
313 313 314 315 315 316 319 309 308 308 308 308 310 309 308 307 307 309 312 317 318 320 330 327 328 330 332 330 328 327 329 323 333 332 330 329 328 325 322 323 321 319 317 314
312 314 314 316 315 319 312 306 306 307 307 308 309 308 305 305 304 305 306 311 316 324 329 330 328 330 333 331 328 328 327 326 330 327 327 325 324 321 321 321 318 316 313 310
314 315 316 317 319 318 310 307 306 305 306 307 305 303 303 305 306 306 307 310 317 328 330 328 329 330 329 330 328 325 327 327 326 324 324 323 320 320 319 316 313 311 311 310
312 312 312 317 317 319 306 305 303 306 308 304 301 302 304 309 319 316 314 315 321 330 330 328 330 330 329 329 330 329 326 324 322 321 320 320 319 317 314 313 312 311 311 310
312 310 312 311 313 314 303 304 303 307 307 300 300 302 304 314 322 327 323 325 328 329 327 328 327 326 329 329 328 327 321 320 319 320 319 318 315 313 312 311 311 310 309 308
313 312 308 310 312 313 302 303 303 301 299 299 301 302 306 316 326 326 327 327 326 327 326 328 328 326 326 324 325 320 320 318 318 318 315 313 312 311 311 311 309 308 308 307
310 311 309 308 309 305 301 300 301 299 298 300 301 305 309 327 326 325 326 325 326 327 324 322 322 324 322 320 321 318 316 316 316 313 312 312 312 311 310 309 309 309 308 307
311 308 308 306 306 303 301 301 299 299 300 301 304 307 320 321 324 326 326 325 324 324 322 323 321 319 318 318 317 316 316 315 314 313 312 311 310 310 310 310 310 308 307 305
309 307 306 305 305 300 303 299 298 300 300 304 305 311 314 316 318 321 322 323 323 321 321 320 319 317 316 316 316 316 315 314 311 311 310 310 309 309 310 310 311 308 307 307
306 304 305 304 301 299 298 299 299 300 301 303 303 310 314 315 315 317 318 320 321 319 318 317 316 316 316 316 315 314 312 311 311 310 309 308 308 309 309 309 308 306 306 306
Wind_Speed
18 8 10 18 17 18 15 17 19 18 15 14 15 14 15 14 12 14 23 31 33 36 38 39 39 35 16 24 28 33 52 42 40 30 37 34 32 28 28 21 17 12 19 19
11 13 18 20 20 22 20 20 23 20 18 18 17 19 13 13 8 22 20 19 29 33 37 39 40 38 22 28 29 29 43 59 37 47 45 38 35 29 29 25 22 16 16 17
14 16 20 21 15 17 18 17 17 20 18 17 14 26 16 12 16 24 28 26 33 37 34 30 46 41 29 34 35 35 44 56 56 50 48 40 33 30 33 29 25 23 23 21
12 11 19 20 21 19 21 14 17 17 10 13 7 19 18 5 12 12 19 28 34 37 39 39 29 46 37 37 37 37 50 50 53 48 45 44 42 38 34 31 30 29 25 22
17 14 16 18 21 20 26 18 17 20 10 13 10 8 23 6 15 16 20 25 31 40 37 37 40 43 45 45 45 40 44 47 55 44 47 48 43 39 36 36 33 28 25 20
16 19 17 16 17 17 16 13 14 11 7 13 8 13 22 14 20 18 18 28 33 43 42 37 41 33 38 46 50 50 48 50 51 56 62 46 47 45 44 39 34 31 25 19
18 11 10 9 8 8 12 4 3 4 7 12 9 11 19 5 13 20 21 28 31 45 45 38 41 41 22 41 46 51 52 50 50 51 47 40 47 43 43 39 35 30 25 21
7 9 9 11 12 11 15 7 3 6 4 3 4 8 5 10 18 25 25 24 32 36 38 37 41 40 27 36 45 45 47 48 46 49 43 41 45 42 39 37 31 27 25 21
6 6 22 26 21 10 2 5 7 4 8 4 6 11 12 21 21 13 11 12 19 30 31 34 43 44 36 31 44 46 47 46 46 49 44 41 38 36 37 32 26 26 25 24
4 14 14 19 14 13 13 5 3 4 4 6 5 7 4 9 10 7 6 6 11 20 28 29 42 48 41 29 46 47 45 48 50 48 44 44 39 31 33 31 30 29 29 27
7 7 11 8 6 6 2 2 3 4 4 3 5 5 7 6 3 10 9 17 16 11 21 33 47 53 41 34 43 44 44 47 55 51 50 48 41 41 34 30 28 32 29 28
2 4 6 14 26 20 18 8 12 4 4 4 6 14 8 9 8 8 9 18 20 21 19 19 43 53 38 38 44 42 46 49 61 49 48 47 44 36 33 35 33 29 32 27
5 4 6 7 3 4 4 2 6 11 9 16 9 8 5 11 6 10 11 25 25 24 25 28 21 52 37 41 44 45 45 52 52 50 52 47 44 43 42 36 32 33 32 28
13 4 8 11 17 15 22 23 20 16 7 7 12 21 15 13 15 9 13 23 25 18 25 13 15 31 40 37 34 36 39 50 58 60 55 51 46 46 41 39 38 35 30 29
2 6 10 17 22 23 25 28 24 17 12 8 9 16 13 11 11 14 18 19 24 15 4 16 23 32 40 38 36 32 23 5 73 62 56 50 50 48 44 42 38 34 32 29
4 4 11 18 20 19 15 13 10 5 6 9 11 13 13 13 22 20 18 18 20 16 7 20 30 40 44 42 37 37 20 21 65 64 57 53 51 47 46 45 40 35 31 28
2 3 6 8 13 22 2 3 16 14 11 7 8 4 6 16 21 17 19 19 25 22 20 27 29 43 48 39 31 37 40 21 39 53 54 52 50 49 47 45 39 33 29 25
4 4 5 8 15 3 2 1 13 13 18 13 9 12 18 24 35 37 30 28 25 23 27 30 28 43 61 57 50 57 53 52 51 51 53 51 50 49 45 41 36 32 27 25
5 4 4 5 8 9 2 9 14 15 19 6 5 23 24 33 31 32 29 36 23 24 34 40 39 48 60 63 49 54 40 56 53 49 48 47 48 45 41 40 35 31 28 26
13 9 2 4 6 4 5 17 32 5 6 8 24 25 24 27 5 5 29 30 18 30 42 52 48 51 57 61 52 50 46 45 46 46 46 45 43 43 41 38 33 29 26 27
7 4 4 7 5 1 12 19 27 5 7 33 35 34 28 11 5 23 31 32 39 39 49 54 53 57 58 58 59 57 45 43 43 44 44 41 40 39 37 35 30 28 28 27
5 6 3 5 4 4 21 8 6 11 28 30 38 38 35 15 32 40 45 42 43 48 53 59 58 57 57 57 56 54 50 46 45 42 42 43 41 38 35 34 31 28 27 27
3 1 4 2 4 6 23 13 25 29 29 25 39 47 42 34 41 46 45 33 43 49 51 57 49 53 49 51 54 55 49 50 48 49 49 45 40 36 32 33 30 29 25 25
2 2 3 6 1 10 23 23 29 32 30 30 32 31 24 33 36 39 38 39 44 50 54 58 55 48 48 52 54 54 54 50 49 47 46 44 42 38 32 29 28 28 27 25
2 4 4 7 5 20 1 26 33 28 26 25 32 31 41 42 39 41 42 48 53 49 51 49 52 52 50 53 52 49 47 45 48 47 44 41 39 37 34 30 29 28 24 13
3 2 2 3 13 7 15 25 25 22 21 24 31 39 44 46 43 46 41 49 49 46 51 49 50 51 49 48 46 43 43 44 45 44 40 37 36 35 35 36 36 29 23 16
Wind_Direction
265 260 228 244 245 255 276 287 282 284 286 296 295 262 257 267 252 265 263 252 268 259 262 266 268 268 256 219 196 189 176 169 182 194 202 196 196 189 189 190 192 190 194 200
269 250 245 254 253 241 242 250 265 272 280 279 285 277 269 260 243 247 241 274 278 278 256 256 261 260 235 212 201 207 197 188 193 189 202 200 191 190 192 193 196 197 190 194
272 281 292 295 300 297 286 267 253 266 272 264 310 285 276 264 262 257 241 247 253 267 269 259 248 243 242 211 200 193 192 188 187 188 195 200 190 192 190 192 188 181 185 196
273 287 290 297 292 293 282 289 301 306 308 271 215 275 260 257 276 265 261 236 243 253 256 260 262 231 232 202 202 200 192 199 204 196 196 197 191 189 189 185 175 178 186 197
277 277 277 283 286 284 281 287 285 287 262 285 257 259 270 222 253 252 255 250 256 254 253 255 251 240 232 203 194 201 196 188 182 193 203 197 191 190 181 181 178 180 186 195
283 297 287 274 299 299 310 326 318 314 273 258 226 228 264 238 245 255 257 243 241 248 251 251 249 253 224 204 193 195 195 192 198 195 196 195 185 185 181 183 184 183 179 179
309 276 273 53 20 333 49 18 282 246 220 254 197 224 241 276 243 245 249 255 251 238 243 242 245 247 257 194 198 198 196 199 196 197 180 187 186 185 186 187 189 178 176 185
341 329 2 341 317 300 284 161 271 295 245 294 274 251 245 231 254 255 272 268 254 251 236 232 241 241 243 201 197 201 204 203 200 193 182 186 186 187 190 192 187 180 171 174
303 258 321 304 294 279 223 194 163 251 235 254 224 273 282 265 255 260 260 344 283 231 243 247 240 240 239 207 205 200 200 199 198 189 184 180 187 192 185 180 176 167 172 169
254 289 278 288 307 280 239 158 271 204 241 242 230 275 262 11 0 322 303 273 333 251 241 265 236 239 238 224 205 202 194 197 192 183 183 175 178 193 191 182 178 172 167 163
281 219 282 303 231 233 287 347 183 241 230 271 299 249 191 127 330 311 277 281 297 316 275 259 229 230 225 217 207 200 196 193 185 174 174 180 179 181 184 180 171 168 161 152
248 289 282 282 274 270 251 229 208 236 235 232 261 257 293 298 213 228 278 289 289 294 284 267 213 223 215 212 206 203 199 194 175 179 180 182 180 181 175 171 169 153 149 145
180 233 296 299 306 32 38 321 254 267 260 242 246 255 349 318 288 275 264 289 285 294 310 305 246 214 207 210 202 195 197 178 177 175 174 171 168 167 168 166 156 152 145 143
166 231 223 260 278 297 289 279 271 264 250 268 238 272 276 279 276 283 301 344 311 317 315 297 223 197 193 194 192 185 179 178 168 170 170 165 164 163 160 155 149 144 143 140
167 252 247 253 261 269 270 272 286 273 288 250 298 278 299 307 307 311 323 325 321 326 358 166 176 178 165 172 174 151 174 45 159 154 157 158 160 158 153 148 147 143 145 147
239 275 297 290 274 268 276 35 352 307 278 278 269 263 256 304 311 307 303 307 309 298 252 153 145 157 149 160 158 165 137 35 126 152 148 150 150 149 150 149 144 149 150 149
232 284 304 279 323 307 153 42 350 292 270 269 270 311 335 301 292 273 282 285 281 274 180 131 136 134 140 143 156 144 166 132 134 138 140 146 150 149 150 144 147 150 145 140
200 296 281 290 305 282 130 184 318 285 287 288 294 296 284 281 274 273 260 264 273 286 180 162 143 131 126 126 127 129 138 153 147 140 145 150 150 151 147 141 144 142 137 134
232 282 289 297 311 273 67 342 322 326 304 251 321 306 295 285 260 255 246 237 244 203 164 151 137 131 131 135 140 138 145 137 142 140 145 153 155 148 141 142 138 135 135 127
344 310 296 295 302 294 349 328 324 311 265 2 320 306 309 313 188 225 197 202 222 153 138 142 129 136 135 139 150 138 136 138 132 141 148 151 148 143 141 138 135 133 125 119
328 358 285 311 279 111 352 339 332 3 313 318 315 311 308 312 176 126 147 159 156 154 122 131 121 122 135 142 142 140 133 131 138 147 148 143 141 138 134 135 130 129 121 115
316 332 336 325 288 323 359 342 8 294 302 307 310 312 310 283 121 119 130 136 132 128 124 129 129 124 134 141 141 135 136 140 146 143 138 135 135 135 134 125 123 115 111 112
337 265 298 260 279 348 345 298 319 325 313 319 320 321 333 110 116 122 131 139 138 126 118 128 130 131 127 127 139 135 136 144 144 141 139 138 131 129 124 116 113 111 108 108
354 89 277 330 106 341 318 338 332 341 332 330 342 337 68 81 99 117 119 119 120 123 120 126 124 124 129 132 136 137 142 147 144 137 133 133 131 126 122 117 119 114 114 119
202 307 299 259 306 324 222 337 335 349 349 5 15 37 63 74 76 93 103 111 114 112 120 127 127 128 125 132 136 144 147 144 140 138 136 133 130 131 131 134 141 133 135 130
147 233 311 289 317 288 296 334 348 358 6 28 25 59 77 79 78 89 93 111 128 120 123 120 122 127 132 139 143 144 144 147 140 137 136 135 138 141 142 139 130 130 133 141